Location: Newark
(46.7000°N, 60.6000°W)
Time: 12:28:37
(UTC+00:00)

A-11 Canister half - Pass Details

Date: 08 November 2020
Orbit: 1516 x 1684 km, 47.2° (Epoch: 04 December)

Event Time Altitude Azimuth Distance (km) Brightness Sun altitude
Rises 22:21:51 0° 247° (WSW) 4,924 13.1 -18.3°
Reaches altitude 10° 22:25:00 10° 247° (WSW) 3,942 12.2 -18.8°
Maximum altitude 22:35:11 82° 162° (SSE) 1,698 9.1 -20.5°
Enters shadow 22:40:52 31° 79° (E) 2,619 9.6 -21.5°
